Location: Asheville, NC
(35.6000°N, 82.5500°W)
Time: 10:40:44

ISS - Pass Details

Date: 16 March 2018
Orbit: 403 x 406 km, 51.6° (Epoch: 21 March)

Event Time Altitude Azimuth Distance (km) Brightness Sun altitude
Exits shadow 06:23:09 - 335° (NNW) 1,746 -0.8 -16.3°
Reaches altitude 10° 06:24:05 10° 344° (NNW) 1,460 -1.1 -16.1°
Maximum altitude 06:26:25 18° 30° (NNE) 1,075 -1.2 -15.6°
Drops below altitude 10° 06:28:44 10° 75° (ENE) 1,454 0.4 -15.2°
Sets 06:31:16 0° 96° (E) 2,310 1.6 -14.7°
